Probability
12 14 16 16 16 16 16 16 13 10 9 12 12 10 9 7 5 5 4 2 0 0 0 0 0 1 2 3 4 4 3 3 3 4 4 4 4 5
11 13 14 15 15 15 16 16 15 12 10 12 14 12 10 7 6 6 5 2 1 0 0 0 0 0 1 2 3 3 3 3 3 3 4 3 3 3
10 10 12 13 13 14 15 16 17 15 13 13 15 15 12 9 8 8 6 4 3 1 0 0 0 0 0 1 1 2 2 3 3 3 3 3 2 1
9 9 9 10 11 13 14 15 16 16 14 14 16 16 14 10 9 8 5 4 3 1 0 0 0 0 0 0 0 1 1 1 2 2 2 1 1 0
9 9 9 9 11 11 11 12 13 13 13 14 15 15 13 10 9 7 5 4 3 1 0 0 0 0 0 0 0 0 0 0 1 1 1 0 0 0
12 12 11 11 10 8 7 8 9 11 12 14 14 13 12 11 9 8 6 5 3 2 1 1 0 0 0 0 0 0 0 0 0 0 0 0 0 0
15 15 13 10 8 5 4 5 8 10 12 13 13 11 11 10 10 9 7 6 5 3 3 2 1 0 0 0 0 0 0 0 0 0 0 0 0 0
17 15 12 9 7 6 4 4 5 8 11 12 12 11 11 11 11 9 8 8 6 5 4 3 1 0 0 0 0 0 0 0 0 0 0 0 0 0
16 14 11 9 8 8 7 5 4 6 9 12 14 13 14 15 15 12 11 10 9 7 6 4 3 1 0 0 0 0 0 0 0 0 0 0 0 0
12 12 11 9 9 10 10 8 7 8 8 10 13 13 13 14 15 14 12 11 9 10 9 7 5 3 1 0 0 0 0 0 0 0 0 0 0 0
9 9 8 8 8 8 10 11 11 10 9 8 9 9 8 8 10 13 12 9 8 9 11 10 7 4 2 1 0 0 0 0 0 0 0 0 0 0
7 6 5 4 4 5 8 11 11 10 9 7 6 6 5 4 6 10 12 10 8 8 11 11 7 4 3 2 2 1 0 0 0 0 0 0 0 0
6 5 4 2 1 2 4 6 6 7 7 7 7 6 6 5 6 8 11 12 11 9 10 10 8 5 5 4 3 2 2 2 1 1 0 0 0 0
6 5 3 1 0 0 1 1 1 2 4 5 5 5 6 5 5 7 9 12 11 9 8 8 8 7 6 5 3 3 3 4 4 2 2 1 1 1
5 3 1 0 0 0 0 0 0 1 3 3 4 5 5 5 5 6 7 9 8 8 8 8 8 7 6 5 4 3 4 4 4 3 3 3 2 2
4 3 1 1 1 1 1 1 1 2 3 4 4 5 5 5 5 5 6 6 5 6 7 8 8 7 5 5 4 4 3 3 3 3 3 3 3 2
5 5 4 3 3 2 2 2 3 3 3 3 4 4 4 4 4 4 5 4 4 6 7 8 7 6 5 4 4 3 3 3 3 3 3 3 3 3
6 6 6 5 4 3 3 3 3 3 3 3 3 3 3 3 3 4 4 4 4 6 7 7 6 5 4 3 3 3 3 3 3 3 3 3 3 3
5 6 6 6 4 3 3 3 3 3 3 3 3 3 3 3 3 4 5 6 6 6 6 6 5 5 3 3 3 3 3 3 3 3 3 3 3 3
5 5 6 6 4 3 3 3 3 3 3 3 3 3 3 3 3 3 5 6 6 5 4 4 4 4 3 2 1 2 2 2 3 3 3 3 3 3
5 5 6 6 5 4 4 4 3 3 3 3 3 3 3 3 3 3 3 3 3 3 3 2 2 2 2 1 1 0 0 1 1 2 2 3 3 3
4 5 6 7 6 6 6 5 4 3 3 3 3 3 3 3 4 4 2 1 1 1 1 1 1 1 1 1 0 0 0 0 0 1 1 1 2 2
3 5 7 8 8 8 7 6 4 3 3 3 3 3 3 3 4 4 3 1 0 0 0 0 0 0 0 0 0 0 0 0 0 0 0 0 1 1
Wind_Speed
2 2 2 2 2 2 2 3 3 3 2 0 1 0 0 0 1 1 1 4 3 3 2 2 2 2 2 2 3 3 3 3 3 4 5 6 6 6
2 2 3 2 2 2 2 3 3 4 3 1 0 1 1 1 2 1 1 5 4 4 3 3 2 2 3 3 3 3 2 2 3 4 5 5 6 6
3 3 3 2 2 2 2 2 2 3 3 2 1 1 0 2 0 1 2 2 4 5 4 4 3 3 3 3 3 3 3 2 3 4 5 5 5 6
3 3 3 2 2 3 2 2 2 2 3 3 2 1 1 1 1 2 1 2 2 5 6 5 5 5 4 4 4 3 3 3 2 3 4 5 5 5
2 3 3 3 3 2 3 2 2 2 2 3 2 1 1 1 2 2 1 1 2 5 7 7 6 6 5 4 4 3 3 3 3 3 4 5 5 6
2 3 3 3 3 3 3 3 3 3 2 3 2 2 2 1 2 2 2 2 2 2 2 3 6 8 7 6 5 5 4 4 3 3 4 5 5 6
3 3 2 2 2 3 3 2 3 3 3 3 3 2 2 2 2 2 2 2 2 2 1 2 3 4 5 6 6 5 5 4 4 4 3 4 5 6
3 3 3 4 4 4 3 4 4 5 4 4 3 3 3 3 2 3 3 3 2 1 2 2 2 3 2 2 4 6 6 5 5 4 4 4 5 6
3 4 4 1 2 3 4 7 6 6 6 6 5 5 4 3 4 5 3 4 4 2 3 3 3 3 2 2 7 6 6 5 5 5 4 4 5 6
4 4 4 3 3 3 4 4 5 5 5 6 4 5 5 3 4 5 5 5 4 3 3 4 3 3 2 1 7 7 7 6 6 6 5 5 5 5
4 4 4 3 1 3 5 5 5 4 4 4 4 4 3 4 5 5 4 4 3 3 3 4 3 2 3 2 4 8 8 8 7 7 6 6 6 6
3 3 3 2 2 3 5 5 5 4 4 3 4 6 6 6 7 6 5 5 4 3 2 3 3 2 3 2 2 4 5 7 8 8 7 6 6 5
3 2 1 3 3 3 5 5 4 5 5 5 4 4 4 4 4 5 4 4 5 4 2 3 3 3 3 3 2 3 3 3 4 5 7 7 7 6
3 2 0 1 3 4 4 3 4 6 5 4 4 4 3 3 2 3 3 4 4 4 3 3 3 3 3 4 3 2 2 2 3 3 3 6 8 8
2 1 2 4 4 5 5 5 6 5 4 4 4 3 3 3 2 2 3 2 3 3 3 3 4 3 4 4 3 2 2 2 2 2 2 3 3 4
3 3 5 6 6 4 3 4 4 3 4 4 3 3 2 2 2 2 2 2 2 2 1 2 3 3 4 3 3 3 2 2 2 2 2 2 3 3
2 3 3 3 3 3 2 2 2 2 3 3 3 3 2 2 2 1 1 2 2 2 2 1 2 2 2 3 3 3 2 2 1 1 2 3 3 3
3 3 2 2 3 2 2 2 2 2 2 3 3 3 2 2 2 2 2 2 2 2 2 2 2 2 2 1 2 3 3 2 1 2 3 3 3 3
4 3 2 2 2 2 2 2 2 1 2 3 2 2 2 2 2 2 2 2 2 2 2 2 2 3 4 3 2 2 3 3 2 2 3 3 4 3
4 3 2 2 2 2 2 2 2 2 2 2 2 2 2 2 2 2 2 2 2 2 2 2 2 2 3 3 2 2 3 3 3 3 3 3 3 3
3 3 2 2 2 3 2 2 3 3 2 3 2 2 2 2 2 2 2 2 3 3 2 2 1 3 3 3 3 2 1 2 3 3 4 4 4 4
3 3 3 3 3 2 2 2 3 3 2 3 3 2 2 3 3 3 3 3 3 3 2 1 1 2 2 3 3 2 2 2 3 3 4 4 4 4
3 3 3 3 3 2 2 3 4 3 3 3 3 3 3 3 3 3 3 3 3 3 2 2 2 2 3 3 3 3 3 3 3 3 3 4 7 7
Wind_Direction
251 249 259 262 272 273 269 273 279 284 286 174 269 39 252 76 114 197 156 131 158 163 160 158 161 163 162 167 167 172 179 188 203 207 205 204 201 201
258 285 280 274 268 261 258 259 265 275 288 319 255 359 7 277 142 232 172 149 159 161 159 157 161 175 180 179 177 186 191 199 217 218 210 206 204 202
255 246 255 279 285 277 263 259 262 265 268 275 284 100 278 299 5 252 207 204 152 158 168 171 181 185 189 193 192 200 207 213 224 222 212 208 207 203
249 249 254 248 258 276 278 272 271 264 265 273 278 236 220 249 250 255 228 218 199 154 172 180 185 184 184 189 191 196 201 206 215 218 210 203 202 202
253 253 255 258 264 267 267 269 265 253 254 250 254 249 232 247 250 242 241 261 236 163 170 177 180 184 184 187 190 196 200 207 214 218 211 205 201 201
245 251 257 259 261 262 256 259 269 271 250 253 240 234 216 214 242 235 223 220 249 216 186 195 179 186 186 186 189 196 201 205 211 218 215 207 203 202
245 241 237 244 289 283 292 284 272 269 261 256 246 244 236 228 239 245 253 246 232 232 238 218 199 207 192 189 194 199 204 207 210 213 217 214 208 204
250 250 225 208 205 215 246 276 285 273 278 271 261 257 249 246 254 260 259 259 256 206 249 248 238 234 219 208 168 180 196 204 206 207 215 217 218 212
252 256 267 262 242 253 222 223 238 243 255 271 277 279 268 258 261 259 260 270 276 258 250 257 248 247 237 162 153 172 187 197 203 206 212 215 217 216
248 249 258 261 279 277 264 256 254 247 244 246 259 267 275 283 261 256 252 251 255 240 227 253 247 255 249 191 159 171 182 188 195 204 209 212 214 219
249 251 251 245 228 270 257 255 260 258 241 231 253 258 274 271 275 264 251 250 256 246 233 256 265 266 255 219 174 177 184 189 195 200 203 207 213 218
240 227 211 241 244 261 257 259 260 268 273 244 229 230 233 225 225 246 256 256 265 261 220 254 253 257 259 242 213 194 193 190 196 198 199 201 206 223
262 250 190 163 217 247 263 263 272 280 270 261 251 245 236 228 224 232 250 259 263 269 243 251 269 263 266 266 250 227 221 208 204 199 197 196 206 230
272 279 348 160 228 243 248 258 270 268 260 258 258 258 256 249 246 248 250 267 277 275 268 260 265 259 264 264 263 240 239 231 221 224 217 190 202 216
273 320 252 230 233 229 215 229 244 248 255 260 267 274 278 277 262 244 235 236 247 252 240 250 260 256 254 260 263 259 259 238 225 227 225 214 216 217
231 201 208 221 232 242 225 218 235 267 276 274 282 282 278 266 253 243 240 240 257 262 238 232 241 243 248 262 259 256 256 247 227 234 238 241 237 227
257 235 232 220 227 227 236 253 263 258 265 280 282 280 274 270 274 272 267 268 271 270 257 238 242 238 253 277 255 254 258 254 236 223 242 245 241 240
245 240 249 258 260 261 258 258 262 274 283 284 282 279 279 278 279 277 270 263 259 265 269 258 248 235 228 248 279 266 263 269 253 230 256 258 254 250
231 247 253 254 261 269 275 277 284 287 279 279 287 290 286 278 278 275 269 268 269 271 271 271 261 257 256 253 225 251 281 276 257 250 251 262 262 258
241 250 256 259 261 269 275 283 288 281 268 275 281 284 287 284 281 276 270 273 270 266 257 250 257 274 283 287 290 254 238 262 260 257 265 267 258 232
239 246 254 254 257 266 273 273 270 268 273 273 271 275 277 275 273 274 270 265 264 257 256 255 273 275 278 266 254 251 218 213 262 272 274 269 259 242
250 248 251 251 251 254 258 265 267 265 263 263 267 265 264 266 267 268 270 259 256 263 273 275 234 243 253 256 263 263 261 239 225 235 255 269 277 277
250 253 252 247 239 242 249 252 262 266 261 264 265 260 260 264 268 268 270 271 273 263 263 262 250 255 263 262 268 272 266 264 254 234 230 216 219 235